Home   Weather   Woodbridge   Past weeks
Flag for USA

Past Weather in Woodbridge, California, USA — Yesterday and Last 2 Weeks

Now
78 °F

Clear.


Feels Like: 79 °F
Forecast: 93 / 64 °F
Wind: 14 mph from West

Location: Stockton Metropolitan Airport

Current Time: Jul 18, 2019 at 12:11:39 am

Latest Report: Jul 17, 2019 at 10:55 pm


Visibility: 10 mi

Pressure: 29.84 "Hg

Humidity: 43%

Dew Point: 54 °F

Location of WoodbridgeLocation

Past Weather in Woodbridge — Graph

°F

Woodbridge Temperature Yesterday

Maximum temperature yesterday: 95 °F (at 5:55 pm)
Minimum temperature yesterday: 61 °F (at 5:55 am)
Average temperature yesterday: 78 °F

High & Low Weather Summary for the Past Weeks

 TemperatureHumidityPressure
High99 °F (Jul 13, 4:55 pm)81% (Jul 10, 4:55 am)30.06 "Hg (Jul 10, 4:55 am)
Low57 °F (Jul 9, 6:05 am)15% (Jul 6, 3:55 pm)29.77 "Hg (Jul 12, 5:55 pm)
Average77 °F45%29.90 "Hg
* Reported Jul 2 10:55 pm — Jul 17 10:55 pm, Woodbridge. Weather by CustomWeather, © 2019

Note: Actual official high and low records may vary slightly from our data, if they occured in-between our weather recording intervals... More about our weather records

Advertising

Woodbridge Weather History for the Previous 24 Hours

Scroll right to see more
 ConditionsComfort  
Time TempWeatherWind HumidityBarometerVisibility
10:55 pm
Wed, Jul 17
78 °FClear.14 mph43%29.84 "Hg10 mi
9:55 pm81 °FClear.8 mph39%29.84 "Hg10 mi
8:55 pm83 °FClear.10 mph44%29.83 "Hg10 mi
7:55 pm88 °FSunny.14 mph35%29.81 "Hg10 mi
6:55 pm94 °FSunny.7 mph17%29.81 "Hg10 mi
5:55 pm95 °FSunny.7 mph15%29.81 "Hg10 mi
4:55 pm94 °FSunny.5 mph22%29.83 "Hg10 mi
3:55 pm93 °FSunny.5 mph21%29.83 "Hg10 mi
2:55 pm92 °FSunny.5 mph25%29.85 "Hg10 mi
1:55 pm90 °FSunny.5 mph29%29.86 "Hg10 mi
12:55 pm87 °FSunny.7 mph31%29.88 "Hg10 mi
11:55 am84 °FSunny.5 mph36%29.88 "Hg10 mi
10:55 am79 °FSunny.No wind42%29.88 "Hg10 mi
9:55 am78 °FSunny.5 mph43%29.88 "Hg10 mi
8:55 am73 °FSunny.5 mph50%29.88 "Hg10 mi
7:55 am69 °FSunny.No wind57%29.88 "Hg10 mi
6:55 am64 °FSunny.No wind68%29.86 "Hg10 mi
5:55 am61 °FSunny.6 mph72%29.84 "Hg10 mi
4:55 am63 °FClear.7 mph68%29.83 "Hg10 mi
3:55 am64 °FClear.8 mph65%29.82 "Hg10 mi
2:55 am64 °FClear.9 mph65%29.82 "Hg10 mi
1:55 am64 °FClear.10 mph65%29.82 "Hg10 mi
12:55 am65 °FClear.7 mph61%29.83 "Hg10 mi
Weather by CustomWeather, © 2019

See weather overview